Regional Weather Roundup
Issued by NWS Newport/Morehead, NC

Current Version | Previous Version | Graphics & Text | Print | Product List | Glossary On
Versions: 1 2 3 4 5 6 7 8 9 10 11 12 13 14 15 16 17 18 19 20 21 22 23 24 25 26 27 28 29 30 31 32 33 34 35 36 37 38 39 40 41 42 43 44 45 46 47 48 49 50
062 ASUS42 KMHX 241713 RWRMHX WEATHER ROUNDUP FOR EASTERN NORTH CAROLINA NATIONAL WEATHER SERVICE NEWPORT/MOREHEAD CITY NC 100 PM EDT MON APR 24 2017 NOTE: "FAIR" INDICATES FEW OR NO CLOUDS BELOW 12,000 FEET WITH NO SIGNIFICANT WEATHER AND/OR OBSTRUCTIONS TO VISIBILITY NCZ015>017-031-032-045>047-102-103-241800- NORTH COAST CITY SKY/WX TMP DP RH WIND PRES REMARKS EDENTON LGT RAIN 69 66 92 NE6 29.87F ELIZABETH CITY CLOUDY 68 67 96 NE14 29.88F KITTY HAWK CLOUDY 66 65 96 CALM 29.88S MANTEO CLOUDY 69 64 84 E8 29.88F $$ NCZ045>047-081-094-103-104-241800- CENTRAL COAST CITY SKY/WX TMP DP RH WIND PRES REMARKS FRISCO CLOUDY 74 66 76 SE17 29.85F HAZE $$ NCZ095-097-098-100-101-241800- SOUTHERN COAST CITY SKY/WX TMP DP RH WIND PRES REMARKS BEAUFORT LGT RAIN 68 66 93 SE5 29.80F CEDAR ISLAND NOT AVBL JACKSONVILLE NOT AVBL PINEY ISLAND CLOUDY N/A N/A N/A S7 29.82 HAZE WILMINGTON RAIN 66 64 93 E12 29.75F $$ NCZ011>013-027>030-043-044-078>080-089-090>093-098-241800- COASTAL PLAIN CITY SKY/WX TMP DP RH WIND PRES REMARKS AHOSKIE RAIN 60 59 97 N8 29.89F CLINTON HVY RAIN 62 62 100 NE8 29.80F ELIZABETHTOWN DRIZZLE 64 64 100 E3 29.76F GOLDSBORO LGT RAIN 64 64 100 CALM 29.79F FOG GREENVILLE LGT RAIN 68 68 100 E7 29.86F HAVELOCK LGT RAIN 69 66 90 E8 29.82F KENANSVILLE RAIN 64 64 100 N3 29.80F FOG KINSTON RAIN 68 66 94 E8 29.82 NEW BERN RAIN 66 66 100 SE6 29.83F FOG RICHLANDS LGT RAIN 66 65 96 E5 29.79F FOG ROCKY MOUNT LGT RAIN 61 61 100 NE12 29.85F WASHINGTON LGT RAIN 68 66 95 E7 29.83F WHITEVILLE CLOUDY 66 65 96 NE5 29.73F FOG $$ AMZ130-135-150-152-154-156-158-170-250-252-270-ANZ085-086-088-633-658-670-241800- MARINE OBSERVATIONS STATION/POSITION TIME TEMP WIND PRES WAVE SWELL AIR SEA DIR/SP/G HT/PER HT/PER (UTC) (F) (DEG/KT/KT) (MB) (FT/S) (FT/S) CHESAPEAKE LIGHT NOT AVBL 64 E VA BEACH 1650 59 54 90/ 10/ 10 1013.9 5/ 8 5/ 8 DUCK 1642 62 61 80/ 14/ 15 1011.5 2 E DUCK 1630 62 N/A 4/12 2/12 OREGON INLET 1642 66 59 90/ 7/ 11 1011.6 13E OREGON INLT 1648 56 N/A 6/ 7 5/ 7 HATTERAS CG 1642 73 67 130/ 13/ 17 1010.4 DIAMOND BUOY 1650 73 79 180/ 21/ 29 1010.6 8/11 5/11 CAPE LOOKOUT 1600 67 120/ 16/ 19 1009.9 BEAUFORT LAB 1642 65 65 140/ 5/ 10 1008.6 30 SE NEW RVR IN 1608 67 100/ 10/ 14 1008.6 30 SE NEW RVR IN 1643 71 N/A 7/ 7 2/11 27 SE WRIGHTSVLE 1608 68 71 180/ 16/ 23 1007.1 5 SE WRIGHTSVLE 1608 68 69 50/ 12/ 17 1008.0 225 S CAPE HAT 1650 70 75 110/ 23/ 31 1008.8 7/ 6 2/12 41 SE CHARLESTON 1650 69 73 170/ 14/ 17 1004.5 7/ 7 5/ 7 $$

USA.gov is the U.S. government's official web portal to all federal, state and local government web resources and services.